Hourly Data Report for October 24, 2016

All times are specified in Local Standard Time (LST). Add 1 hour to adjust for Daylight Saving Time where and when it is observed.

PENTICTON A
BRITISH COLUMBIA

49°27'45.000" N
119°36'08.000" W
344.40 m
1126146
71889
YYF

Download Data

Hourly Data (October 2016)
Hourly Data Report for October 24, 2016
Temp Definition
°C
Dew Point Temp Definition
°C
Rel Hum Definition
%
Wind Dir Definition
10's deg

Wind Spd Definition
km/h
Visibility Definition
km
Stn Press Definition
kPa
Hmdx Definition


Wind Chill Definition


Weather Definition


TIME
00:00 Legend Double Dagger 7.4 5.1 85 33 9 24.1 97.31     LegendNANA
01:00 Legend Double Dagger 7.2 5.4 88 34 9 24.1 97.30     Cloudy
02:00 Legend Double Dagger 7.1 5.1 87 1 8 24.1 97.25     LegendNANA
03:00 Legend Double Dagger 7.1 5.1 87 34 9 24.1 97.20     LegendNANA
04:00 Legend Double Dagger 7.8 5.8 87 32 10 24.1 97.14     Cloudy
05:00 Legend Double Dagger 8.4 5.5 82 29 5 24.1 97.18     LegendNANA
06:00 Legend Double Dagger 7.5 5.2 85 1 9 24.1 97.14     LegendNANA
07:00 Legend Double Dagger 7.7 5.5 86 34 11 24.1 97.08     Cloudy
08:00 Legend Double Dagger 8.2 5.8 85 36 10 24.1 97.09     LegendNANA
09:00 Legend Double Dagger 9.8 5.6 75 36 15 24.1 97.06     LegendNANA
10:00
11:00 Legend Double Dagger 11.0 5.8 70 1 17 24.1 97.02     LegendNANA
12:00 Legend Double Dagger 11.1 5.9 70 36 10 24.1 96.88     LegendNANA
13:00 Legend Double Dagger 11.1 5.5 68 35 11 24.1 96.82     Cloudy
14:00 Legend Double Dagger 11.7 5.6 66 35 9 24.1 96.78     LegendNANA
15:00 Legend Double Dagger 11.6 5.3 65 1 12 24.1 96.74     LegendNANA
16:00 Legend Double Dagger 10.4 6.0 74 29 7 24.1 96.73     Mostly Cloudy
17:00 Legend Double Dagger 8.7 6.2 84 2 5 24.1 96.75     LegendNANA
18:00 Legend Double Dagger 8.4 6.4 87 2 3 24.1 96.75     LegendNANA
19:00 Legend Double Dagger 8.0 6.5 90 3 9 24.1 96.68     Mostly Cloudy
20:00 Legend Double Dagger 7.4 6.2 92 36 8 24.1 96.64     LegendNANA
21:00 Legend Double Dagger 8.8 7.1 89 24 3 24.1 96.71     LegendNANA
22:00 Legend Double Dagger 8.2 7.6 96 14 6 11.3 96.72     Rain Showers
23:00 Legend Double Dagger 7.9 7.6 98 34 8 12.9 96.66     Rain

Notes on Data Quality.

Legend

  • E = Estimated
  • M = Missing
  • NA = Not Available
  • ‡ = Partner data that is not subject to review by the National Climate Archives
Date modified: